Year,Month,Day,Hour,Minute,Value (Times are PST for temperature in C)
2021,01,29,00,00,4.80
2021,01,29,00,01,4.80
2021,01,29,00,02,4.80
2021,01,29,00,03,4.80
2021,01,29,00,04,4.80
2021,01,29,00,05,4.80
2021,01,29,00,06,4.80
2021,01,29,00,07,4.80
2021,01,29,00,08,4.80
2021,01,29,00,09,4.80
2021,01,29,00,10,4.80
2021,01,29,00,11,4.80
2021,01,29,00,12,4.80
2021,01,29,00,13,4.80
2021,01,29,00,14,4.70
2021,01,29,00,15,4.70
2021,01,29,00,16,4.70
2021,01,29,00,17,4.70
2021,01,29,00,18,4.70
2021,01,29,00,19,4.70
2021,01,29,00,20,4.70
2021,01,29,00,21,4.70
2021,01,29,00,22,4.70
2021,01,29,00,23,4.70
2021,01,29,00,24,4.70
2021,01,29,00,25,4.70
2021,01,29,00,26,4.70
2021,01,29,00,27,4.70
2021,01,29,00,28,4.70
2021,01,29,00,29,4.60
2021,01,29,00,30,4.60
2021,01,29,00,31,4.60
2021,01,29,00,32,4.60
2021,01,29,00,33,4.60
2021,01,29,00,34,4.60
2021,01,29,00,35,4.60
2021,01,29,00,36,4.60
2021,01,29,00,37,4.60
2021,01,29,00,38,4.60
2021,01,29,00,39,4.50
2021,01,29,00,40,4.50
2021,01,29,00,41,4.50
2021,01,29,00,42,4.50
2021,01,29,00,43,4.40
2021,01,29,00,44,4.40
2021,01,29,00,45,4.40
2021,01,29,00,46,4.40
2021,01,29,00,47,4.40
2021,01,29,00,48,4.40
2021,01,29,00,49,4.40
2021,01,29,00,50,4.30
2021,01,29,00,51,4.30
2021,01,29,00,52,4.30
2021,01,29,00,53,4.30
2021,01,29,00,54,4.30
2021,01,29,00,55,4.30
2021,01,29,00,56,4.30
2021,01,29,00,57,4.30
2021,01,29,00,58,4.20
2021,01,29,00,59,4.20
2021,01,29,01,00,4.20
2021,01,29,01,01,4.20
2021,01,29,01,02,4.20
2021,01,29,01,03,4.20
2021,01,29,01,04,4.20
2021,01,29,01,05,4.20
2021,01,29,01,06,4.20
2021,01,29,01,07,4.20
2021,01,29,01,08,4.10
2021,01,29,01,09,4.10
2021,01,29,01,10,4.10
2021,01,29,01,11,4.10
2021,01,29,01,12,4.10
2021,01,29,01,13,4.10
2021,01,29,01,14,4.00
2021,01,29,01,15,4.00
2021,01,29,01,16,4.00
2021,01,29,01,17,4.00
2021,01,29,01,18,3.90
2021,01,29,01,19,3.90
2021,01,29,01,20,3.90
2021,01,29,01,21,3.90
2021,01,29,01,22,3.90
2021,01,29,01,23,3.90
2021,01,29,01,24,3.90
2021,01,29,01,25,3.80
2021,01,29,01,26,3.80
2021,01,29,01,27,3.80
2021,01,29,01,28,3.80
2021,01,29,01,29,3.80
2021,01,29,01,30,3.80
2021,01,29,01,31,3.80
2021,01,29,01,32,3.80
2021,01,29,01,33,3.70
2021,01,29,01,34,3.70
2021,01,29,01,35,3.70
2021,01,29,01,36,3.70
2021,01,29,01,37,3.70
2021,01,29,01,38,3.60
2021,01,29,01,39,3.60
2021,01,29,01,40,3.60
2021,01,29,01,41,3.60
2021,01,29,01,42,3.60
2021,01,29,01,43,3.60
2021,01,29,01,44,3.60
2021,01,29,01,45,3.60
2021,01,29,01,46,3.50
2021,01,29,01,47,3.50
2021,01,29,01,48,3.50
2021,01,29,01,49,3.50
2021,01,29,01,50,3.50
2021,01,29,01,51,3.50
2021,01,29,01,52,3.50
2021,01,29,01,53,3.50
2021,01,29,01,54,3.50
2021,01,29,01,55,3.40
2021,01,29,01,56,3.40
2021,01,29,01,57,3.40
2021,01,29,01,58,3.40
2021,01,29,01,59,3.40
2021,01,29,02,00,3.40
2021,01,29,02,01,3.40
2021,01,29,02,02,3.40
2021,01,29,02,03,3.40
2021,01,29,02,04,3.40
2021,01,29,02,05,3.40
2021,01,29,02,06,3.30
2021,01,29,02,07,3.30
2021,01,29,02,08,3.30
2021,01,29,02,09,3.30
2021,01,29,02,10,3.30
2021,01,29,02,11,3.30
2021,01,29,02,12,3.30
2021,01,29,02,13,3.30
2021,01,29,02,14,3.30
2021,01,29,02,15,3.30
2021,01,29,02,16,3.30
2021,01,29,02,17,3.30
2021,01,29,02,18,3.30
2021,01,29,02,19,3.30
2021,01,29,02,20,3.30
2021,01,29,02,21,3.30
2021,01,29,02,22,3.20
2021,01,29,02,23,3.20
2021,01,29,02,24,3.20
2021,01,29,02,25,3.20
2021,01,29,02,26,3.20
2021,01,29,02,27,3.20
2021,01,29,02,28,3.20
2021,01,29,02,29,3.20
2021,01,29,02,30,3.20
2021,01,29,02,31,3.20
2021,01,29,02,32,3.20
2021,01,29,02,33,3.20
2021,01,29,02,34,3.20
2021,01,29,02,35,3.20
2021,01,29,02,36,3.20
2021,01,29,02,37,3.20
2021,01,29,02,38,3.20
2021,01,29,02,39,3.20
2021,01,29,02,40,3.20
2021,01,29,02,41,3.10
2021,01,29,02,42,3.10
2021,01,29,02,43,3.10
2021,01,29,02,44,3.10
2021,01,29,02,45,3.10
2021,01,29,02,46,3.10
2021,01,29,02,47,3.10
2021,01,29,02,48,3.10
2021,01,29,02,49,3.10
2021,01,29,02,50,3.10
2021,01,29,02,51,3.10
2021,01,29,02,52,3.10
2021,01,29,02,53,3.10
2021,01,29,02,54,3.10
2021,01,29,02,55,3.00
2021,01,29,02,56,3.00
2021,01,29,02,57,3.00
2021,01,29,02,58,3.00
2021,01,29,02,59,3.00
2021,01,29,03,00,3.00
2021,01,29,03,01,3.00
2021,01,29,03,02,3.00
2021,01,29,03,03,2.90
2021,01,29,03,04,3.00
2021,01,29,03,05,2.90
2021,01,29,03,06,2.90
2021,01,29,03,07,2.90
2021,01,29,03,08,2.90
2021,01,29,03,09,2.90
2021,01,29,03,10,2.90
2021,01,29,03,11,2.90
2021,01,29,03,12,2.90
2021,01,29,03,13,2.90
2021,01,29,03,14,2.90
2021,01,29,03,15,2.90
2021,01,29,03,16,2.90
2021,01,29,03,17,2.90
2021,01,29,03,18,2.90
2021,01,29,03,19,2.90
2021,01,29,03,20,2.90
2021,01,29,03,21,2.90
2021,01,29,03,22,2.90
2021,01,29,03,23,2.90
2021,01,29,03,24,2.90
2021,01,29,03,25,2.90
2021,01,29,03,26,2.90
2021,01,29,03,27,2.90
2021,01,29,03,28,2.90
2021,01,29,03,29,2.90
2021,01,29,03,30,2.90
2021,01,29,03,31,2.90
2021,01,29,03,32,2.80
2021,01,29,03,33,2.90
2021,01,29,03,34,2.80
2021,01,29,03,35,2.90
2021,01,29,03,36,2.90
2021,01,29,03,37,2.90
2021,01,29,03,38,2.90
2021,01,29,03,39,2.80
2021,01,29,03,40,2.80
2021,01,29,03,41,2.80
2021,01,29,03,42,2.90
2021,01,29,03,43,2.80
2021,01,29,03,44,2.80
2021,01,29,03,45,2.80
2021,01,29,03,46,2.80
2021,01,29,03,47,2.80
2021,01,29,03,48,2.80
2021,01,29,03,49,2.80
2021,01,29,03,50,2.80
2021,01,29,03,51,2.80
2021,01,29,03,52,2.80
2021,01,29,03,53,2.80
2021,01,29,03,54,2.80
2021,01,29,03,55,2.80
2021,01,29,03,56,2.80
2021,01,29,03,57,2.80
2021,01,29,03,58,2.80
2021,01,29,03,59,2.80
2021,01,29,04,00,2.80
2021,01,29,04,01,2.80
2021,01,29,04,02,2.80
2021,01,29,04,03,2.80
2021,01,29,04,04,2.80
2021,01,29,04,05,2.80
2021,01,29,04,06,2.80
2021,01,29,04,07,2.80
2021,01,29,04,08,2.80
2021,01,29,04,09,2.80
2021,01,29,04,10,2.80
2021,01,29,04,11,2.80
2021,01,29,04,12,2.80
2021,01,29,04,13,2.80
2021,01,29,04,14,2.80
2021,01,29,04,15,2.80
2021,01,29,04,16,2.70
2021,01,29,04,17,2.70
2021,01,29,04,18,2.70
2021,01,29,04,19,2.70
2021,01,29,04,20,2.70
2021,01,29,04,21,2.70
2021,01,29,04,22,2.70
2021,01,29,04,23,2.70
2021,01,29,04,24,2.70
2021,01,29,04,25,2.70
2021,01,29,04,26,2.70
2021,01,29,04,27,2.70
2021,01,29,04,28,2.70
2021,01,29,04,29,2.70
2021,01,29,04,30,2.60
2021,01,29,04,31,2.60
2021,01,29,04,32,2.60
2021,01,29,04,33,2.60
2021,01,29,04,34,2.60
2021,01,29,04,35,2.60
2021,01,29,04,36,2.60
2021,01,29,04,37,2.60
2021,01,29,04,38,2.60
2021,01,29,04,39,2.60
2021,01,29,04,40,2.60
2021,01,29,04,41,2.60
2021,01,29,04,42,2.60
2021,01,29,04,43,2.60
2021,01,29,04,44,2.50
2021,01,29,04,45,2.50
2021,01,29,04,46,2.50
2021,01,29,04,47,2.50
2021,01,29,04,48,2.50
2021,01,29,04,49,2.50
2021,01,29,04,50,2.50
2021,01,29,04,51,2.60
2021,01,29,04,52,2.60
2021,01,29,04,53,2.60
2021,01,29,04,54,2.60
2021,01,29,04,55,2.60
2021,01,29,04,56,2.60
2021,01,29,04,57,2.60
2021,01,29,04,58,2.60
2021,01,29,04,59,2.60
2021,01,29,05,00,2.60
2021,01,29,05,01,2.60
2021,01,29,05,02,2.60
2021,01,29,05,03,2.60
2021,01,29,05,04,2.60
2021,01,29,05,05,2.60
2021,01,29,05,06,2.60
2021,01,29,05,07,2.60
2021,01,29,05,08,2.60
2021,01,29,05,09,2.60
2021,01,29,05,10,2.60
2021,01,29,05,11,2.60
2021,01,29,05,12,2.60
2021,01,29,05,13,2.60
2021,01,29,05,14,2.60
2021,01,29,05,15,2.60
2021,01,29,05,16,2.60
2021,01,29,05,17,2.60
2021,01,29,05,18,2.60
2021,01,29,05,19,2.60
2021,01,29,05,20,2.60
2021,01,29,05,21,2.60
2021,01,29,05,22,2.60
2021,01,29,05,23,2.60
2021,01,29,05,24,2.70
2021,01,29,05,25,2.70
2021,01,29,05,26,2.70
2021,01,29,05,27,2.70
2021,01,29,05,28,2.70
2021,01,29,05,29,2.70
2021,01,29,05,30,2.70
2021,01,29,05,31,2.70
2021,01,29,05,32,2.70
2021,01,29,05,33,2.70
2021,01,29,05,34,2.70
2021,01,29,05,35,2.70
2021,01,29,05,36,2.70
2021,01,29,05,37,2.70
2021,01,29,05,38,2.70
2021,01,29,05,39,2.70
2021,01,29,05,40,2.70
2021,01,29,05,41,2.70
2021,01,29,05,42,2.70
2021,01,29,05,43,2.70
2021,01,29,05,44,2.70
2021,01,29,05,45,2.70
2021,01,29,05,46,2.70
2021,01,29,05,47,2.70
2021,01,29,05,48,2.70
2021,01,29,05,49,2.70
2021,01,29,05,50,2.70
2021,01,29,05,51,2.70
2021,01,29,05,52,2.70
2021,01,29,05,53,2.70
2021,01,29,05,54,2.70
2021,01,29,05,55,2.70
2021,01,29,05,56,2.70
2021,01,29,05,57,2.70
2021,01,29,12,44,6.80
2021,01,29,12,45,6.80
2021,01,29,12,46,6.80
2021,01,29,12,47,6.80
2021,01,29,12,48,6.90
2021,01,29,12,49,6.90
2021,01,29,12,50,6.90
2021,01,29,12,51,6.90
2021,01,29,12,52,6.90
2021,01,29,12,53,7.00
2021,01,29,12,54,7.00
2021,01,29,12,55,7.00
2021,01,29,12,56,7.00
2021,01,29,12,57,7.00
2021,01,29,12,58,7.00
2021,01,29,12,59,7.00
2021,01,29,13,00,7.00
2021,01,29,13,01,6.90
2021,01,29,13,02,6.90
2021,01,29,13,03,6.90
2021,01,29,13,04,6.90
2021,01,29,13,05,6.90
2021,01,29,13,06,7.00
2021,01,29,13,07,7.00
2021,01,29,13,08,7.00
2021,01,29,13,09,7.00
2021,01,29,13,10,7.10
2021,01,29,13,11,7.10
2021,01,29,13,12,7.10
2021,01,29,13,13,7.10
2021,01,29,13,14,7.10
2021,01,29,13,15,7.10
2021,01,29,13,16,7.10
2021,01,29,13,17,7.10
2021,01,29,13,18,7.20
2021,01,29,13,19,7.20
2021,01,29,13,20,7.20
2021,01,29,13,21,7.20
2021,01,29,13,22,7.20
2021,01,29,13,23,7.20
2021,01,29,13,24,7.20
2021,01,29,13,25,7.20
2021,01,29,13,26,7.20
2021,01,29,13,27,7.30
2021,01,29,13,28,7.30
2021,01,29,13,29,7.30
2021,01,29,13,30,7.30
2021,01,29,13,31,7.30
2021,01,29,13,32,7.30
2021,01,29,13,33,7.30
2021,01,29,13,34,7.30
2021,01,29,13,35,7.30
2021,01,29,13,36,7.30
2021,01,29,13,37,7.30
2021,01,29,13,38,7.30
2021,01,29,13,39,7.20
2021,01,29,13,40,7.20
2021,01,29,13,41,7.20
2021,01,29,13,42,7.20
2021,01,29,13,43,7.20
2021,01,29,13,44,7.20
2021,01,29,13,45,7.20
2021,01,29,13,46,7.20
2021,01,29,13,47,7.20
2021,01,29,13,48,7.20
2021,01,29,13,49,7.20
2021,01,29,13,50,7.20
2021,01,29,13,51,7.20
2021,01,29,13,52,7.20
2021,01,29,13,53,7.20
2021,01,29,13,54,7.20
2021,01,29,13,55,7.20
2021,01,29,13,56,7.20
2021,01,29,13,57,7.20
2021,01,29,13,58,7.10
2021,01,29,13,59,7.10
2021,01,29,14,00,7.10
2021,01,29,14,01,7.10
2021,01,29,14,02,7.10
2021,01,29,14,03,7.10
2021,01,29,14,04,7.10
2021,01,29,14,05,7.10
2021,01,29,14,06,7.10
2021,01,29,14,07,7.00
2021,01,29,14,08,7.00
2021,01,29,14,09,7.00
2021,01,29,14,10,7.00
2021,01,29,14,11,7.00
2021,01,29,14,12,7.00
2021,01,29,14,13,7.00
2021,01,29,14,14,7.00
2021,01,29,14,15,7.00
2021,01,29,14,16,7.00
2021,01,29,14,17,7.00
2021,01,29,14,18,7.00
2021,01,29,14,19,7.00
2021,01,29,14,20,7.00
2021,01,29,14,21,7.00
2021,01,29,14,22,7.00
2021,01,29,14,23,7.00
2021,01,29,14,24,7.10
2021,01,29,14,25,7.10
2021,01,29,14,26,7.10
2021,01,29,14,27,7.10
2021,01,29,14,28,7.10
2021,01,29,14,29,7.10
2021,01,29,14,30,7.10
2021,01,29,14,31,7.10
2021,01,29,14,32,7.10
2021,01,29,14,33,7.10
2021,01,29,14,34,7.10
2021,01,29,14,35,7.10
2021,01,29,14,36,7.10
2021,01,29,14,37,7.20
2021,01,29,14,38,7.20
2021,01,29,14,39,7.20
2021,01,29,14,40,7.20
2021,01,29,14,41,7.20
2021,01,29,14,42,7.20
2021,01,29,14,43,7.20
2021,01,29,14,44,7.20
2021,01,29,14,45,7.20
2021,01,29,14,46,7.20
2021,01,29,14,47,7.20
2021,01,29,14,48,7.20
2021,01,29,14,49,7.20
2021,01,29,14,50,7.20
2021,01,29,14,51,7.20
2021,01,29,14,52,7.30
2021,01,29,14,53,7.30
2021,01,29,14,54,7.30
2021,01,29,14,55,7.20
2021,01,29,14,56,7.20
2021,01,29,14,57,7.20
2021,01,29,14,58,7.20
2021,01,29,14,59,7.20
2021,01,29,15,00,7.20
2021,01,29,15,01,7.20
2021,01,29,15,02,7.20
2021,01,29,15,03,7.20
2021,01,29,15,04,7.20
2021,01,29,15,05,7.20
2021,01,29,15,06,7.20
2021,01,29,15,07,7.20
2021,01,29,15,08,7.20
2021,01,29,15,09,7.20
2021,01,29,15,10,7.20
2021,01,29,15,11,7.20
2021,01,29,15,12,7.20
2021,01,29,15,13,7.30
2021,01,29,15,14,7.30
2021,01,29,15,15,7.30
2021,01,29,15,16,7.30
2021,01,29,15,17,7.30
2021,01,29,15,18,7.30
2021,01,29,15,19,7.30
2021,01,29,15,20,7.30
2021,01,29,15,21,7.30
2021,01,29,15,22,7.30
2021,01,29,15,23,7.30
2021,01,29,15,24,7.30
2021,01,29,15,25,7.30
2021,01,29,15,26,7.30
2021,01,29,15,27,7.30
2021,01,29,15,28,7.30
2021,01,29,15,29,7.30
2021,01,29,15,30,7.30
2021,01,29,15,31,7.30
2021,01,29,15,32,7.30
2021,01,29,15,33,7.30
2021,01,29,15,34,7.30
2021,01,29,15,35,7.30
2021,01,29,15,36,7.30
2021,01,29,15,37,7.30
2021,01,29,15,38,7.30
2021,01,29,15,39,7.30
2021,01,29,15,40,7.30
2021,01,29,15,41,7.30
2021,01,29,15,42,7.30
2021,01,29,15,43,7.30
2021,01,29,15,44,7.30
2021,01,29,15,45,7.30
2021,01,29,15,46,7.30
2021,01,29,15,47,7.20
2021,01,29,15,48,7.20
2021,01,29,15,49,7.20
2021,01,29,15,50,7.20
2021,01,29,15,51,7.20
2021,01,29,15,52,7.20
2021,01,29,15,53,7.20
2021,01,29,15,54,7.20
2021,01,29,15,55,7.20
2021,01,29,15,56,7.30
2021,01,29,15,57,7.30
2021,01,29,15,58,7.30
2021,01,29,15,59,7.30
2021,01,29,16,00,7.30
2021,01,29,16,01,7.30
2021,01,29,16,02,7.20
2021,01,29,16,03,7.20
2021,01,29,16,04,7.20
2021,01,29,16,05,7.20
2021,01,29,16,06,7.20
2021,01,29,16,07,7.20
2021,01,29,16,08,7.20
2021,01,29,16,09,7.20
2021,01,29,16,10,7.10
2021,01,29,16,11,7.10
2021,01,29,16,12,7.10
2021,01,29,16,13,7.10
2021,01,29,16,14,7.10
2021,01,29,16,15,7.10
2021,01,29,16,16,7.10
2021,01,29,16,17,7.10
2021,01,29,16,18,7.10
2021,01,29,16,19,7.10
2021,01,29,16,20,7.10
2021,01,29,16,21,7.10
2021,01,29,16,22,7.10
2021,01,29,16,23,7.10
2021,01,29,16,24,7.10
2021,01,29,16,25,7.10
2021,01,29,16,26,7.00
2021,01,29,16,27,7.00
2021,01,29,16,28,7.00
2021,01,29,16,29,7.00
2021,01,29,16,30,7.00
2021,01,29,16,31,7.00
2021,01,29,16,32,7.00
2021,01,29,16,33,6.90
2021,01,29,16,34,6.90
2021,01,29,16,35,6.90
2021,01,29,16,36,6.90
2021,01,29,16,37,6.90
2021,01,29,16,38,6.90
2021,01,29,16,39,6.90
2021,01,29,16,40,6.90
2021,01,29,16,41,6.90
2021,01,29,16,42,6.90
2021,01,29,16,43,6.80
2021,01,29,16,44,6.80
2021,01,29,16,45,6.80
2021,01,29,16,46,6.80
2021,01,29,16,47,6.80
2021,01,29,16,48,6.80
2021,01,29,16,49,6.80
2021,01,29,16,50,6.80
2021,01,29,16,51,6.80
2021,01,29,16,52,6.70
2021,01,29,16,53,6.70
2021,01,29,16,54,6.70
2021,01,29,16,55,6.70
2021,01,29,16,56,6.70
2021,01,29,16,57,6.70
2021,01,29,16,58,6.70
2021,01,29,16,59,6.70
2021,01,29,17,00,6.70
2021,01,29,17,01,6.70
2021,01,29,17,02,6.60
2021,01,29,17,03,6.60
2021,01,29,17,04,6.60
2021,01,29,17,05,6.60
2021,01,29,17,06,6.60
2021,01,29,17,07,6.60
2021,01,29,17,08,6.60
2021,01,29,17,09,6.50
2021,01,29,17,10,6.50
2021,01,29,17,11,6.50
2021,01,29,17,12,6.50
2021,01,29,17,13,6.50
2021,01,29,17,14,6.50
2021,01,29,17,15,6.50
2021,01,29,17,16,6.50
2021,01,29,17,17,6.50
2021,01,29,17,18,6.40
2021,01,29,17,19,6.40
2021,01,29,17,20,6.40
2021,01,29,17,21,6.40
2021,01,29,17,22,6.40
2021,01,29,17,23,6.40
2021,01,29,17,24,6.40
2021,01,29,17,25,6.40
2021,01,29,17,26,6.40
2021,01,29,17,27,6.40
2021,01,29,17,28,6.40
2021,01,29,17,29,6.40
2021,01,29,17,30,6.40
2021,01,29,17,31,6.40
2021,01,29,17,32,6.40
2021,01,29,17,33,6.40
2021,01,29,17,34,6.30
2021,01,29,17,35,6.30
2021,01,29,17,36,6.30
2021,01,29,17,37,6.30
2021,01,29,17,38,6.30
2021,01,29,17,39,6.30
2021,01,29,17,40,6.30
2021,01,29,17,41,6.30
2021,01,29,17,42,6.30
2021,01,29,17,43,6.30
2021,01,29,17,44,6.30
2021,01,29,17,45,6.30
2021,01,29,17,46,6.30
2021,01,29,17,47,6.20
2021,01,29,17,48,6.20
2021,01,29,17,49,6.20
2021,01,29,17,50,6.20
2021,01,29,17,51,6.20
2021,01,29,17,52,6.20
2021,01,29,17,53,6.20
2021,01,29,17,54,6.20
2021,01,29,17,55,6.20
2021,01,29,17,56,6.20
2021,01,29,17,57,6.20
2021,01,29,17,58,6.20
2021,01,29,17,59,6.20
2021,01,29,18,00,6.20
2021,01,29,18,01,6.10
2021,01,29,18,02,6.10
2021,01,29,18,03,6.10
2021,01,29,18,04,6.10
2021,01,29,18,05,6.10
2021,01,29,18,06,6.10
2021,01,29,18,07,6.10
2021,01,29,18,08,6.10
2021,01,29,18,09,6.10
2021,01,29,18,10,6.10
2021,01,29,18,11,6.10
2021,01,29,18,12,6.00
2021,01,29,18,13,6.00
2021,01,29,18,14,6.00
2021,01,29,18,15,6.00
2021,01,29,18,16,6.00
2021,01,29,18,17,6.00
2021,01,29,18,18,5.90
2021,01,29,18,19,5.90
2021,01,29,18,20,5.90
2021,01,29,18,21,5.90
2021,01,29,18,22,5.90
2021,01,29,18,23,5.90
2021,01,29,18,24,5.90
2021,01,29,18,25,5.90
2021,01,29,18,26,5.90
2021,01,29,18,27,5.90
2021,01,29,18,28,5.90
2021,01,29,18,29,5.90
2021,01,29,18,30,5.90
2021,01,29,18,31,5.90
2021,01,29,18,32,5.90
2021,01,29,18,33,5.90
2021,01,29,18,34,5.90
2021,01,29,18,35,5.90
2021,01,29,18,36,5.90
2021,01,29,18,37,5.90
2021,01,29,18,38,5.90
2021,01,29,18,39,5.90
2021,01,29,18,40,5.90
2021,01,29,18,41,5.90
2021,01,29,18,42,5.90
2021,01,29,18,43,5.90
2021,01,29,18,44,5.90
2021,01,29,18,45,5.90
2021,01,29,18,46,5.90
2021,01,29,18,47,5.90
2021,01,29,18,48,5.90
2021,01,29,18,49,5.90
2021,01,29,18,50,5.90
2021,01,29,18,51,5.90
2021,01,29,18,52,6.00
2021,01,29,18,53,6.00
2021,01,29,18,54,6.00
2021,01,29,18,55,6.00
2021,01,29,18,56,6.00
2021,01,29,18,57,6.00
2021,01,29,18,58,6.00
2021,01,29,18,59,6.00
2021,01,29,19,00,6.00
2021,01,29,19,01,6.00
2021,01,29,19,02,6.00
2021,01,29,19,03,6.00
2021,01,29,19,04,6.00
2021,01,29,19,05,6.00
2021,01,29,19,06,6.00
2021,01,29,19,07,6.00
2021,01,29,19,08,6.00
2021,01,29,19,09,6.00
2021,01,29,19,10,5.90
2021,01,29,19,11,5.90
2021,01,29,19,12,5.90
2021,01,29,19,13,5.90
2021,01,29,19,14,5.90
2021,01,29,19,15,5.90
2021,01,29,19,16,5.90
2021,01,29,19,17,5.90
2021,01,29,19,18,5.90
2021,01,29,19,19,5.80
2021,01,29,19,20,5.80
2021,01,29,19,21,5.80
2021,01,29,19,22,5.80
2021,01,29,19,23,5.80
2021,01,29,19,24,5.80
2021,01,29,19,25,5.80
2021,01,29,19,26,5.80
2021,01,29,19,27,5.80
2021,01,29,19,28,5.80
2021,01,29,19,29,5.80
2021,01,29,19,30,5.80
2021,01,29,19,31,5.80
2021,01,29,19,32,5.80
2021,01,29,19,33,5.80
2021,01,29,19,34,5.80
2021,01,29,19,35,5.80
2021,01,29,19,36,5.80
2021,01,29,19,37,5.80
2021,01,29,19,38,5.80
2021,01,29,19,39,5.80
2021,01,29,19,40,5.80
2021,01,29,19,41,5.80
2021,01,29,19,42,5.80
2021,01,29,19,43,5.80
2021,01,29,19,44,5.70
2021,01,29,19,45,5.70
2021,01,29,19,46,5.70
2021,01,29,19,47,5.70
2021,01,29,19,48,5.70
2021,01,29,19,49,5.70
2021,01,29,19,50,5.70
2021,01,29,19,51,5.70
2021,01,29,19,52,5.70
2021,01,29,19,53,5.70
2021,01,29,19,54,5.70
2021,01,29,19,55,5.70
2021,01,29,19,56,5.70
2021,01,29,19,57,5.70
2021,01,29,19,58,5.70
2021,01,29,19,59,5.70
2021,01,29,20,00,5.70
2021,01,29,20,01,5.70
2021,01,29,20,02,5.70
2021,01,29,20,03,5.70
2021,01,29,20,04,5.70
2021,01,29,20,05,5.70
2021,01,29,20,06,5.70
2021,01,29,20,07,5.70
2021,01,29,20,08,5.70
2021,01,29,20,09,5.70
2021,01,29,20,10,5.70
2021,01,29,20,11,5.70
2021,01,29,20,12,5.70
2021,01,29,20,13,5.70
2021,01,29,20,14,5.60
2021,01,29,20,15,5.60
2021,01,29,20,16,5.60
2021,01,29,20,17,5.60
2021,01,29,20,18,5.60
2021,01,29,20,19,5.60
2021,01,29,20,20,5.60
2021,01,29,20,21,5.60
2021,01,29,20,22,5.60
2021,01,29,20,23,5.60
2021,01,29,20,24,5.60
2021,01,29,20,25,5.60
2021,01,29,20,26,5.60
2021,01,29,20,27,5.60
2021,01,29,20,28,5.60
2021,01,29,20,29,5.60
2021,01,29,20,30,5.60
2021,01,29,20,31,5.60
2021,01,29,20,32,5.60
2021,01,29,20,33,5.60
2021,01,29,20,34,5.60
2021,01,29,20,35,5.60
2021,01,29,20,36,5.60
2021,01,29,20,37,5.60
2021,01,29,20,38,5.60
2021,01,29,20,39,5.60
2021,01,29,20,40,5.60
2021,01,29,20,41,5.60
2021,01,29,20,42,5.60
2021,01,29,20,43,5.60
2021,01,29,20,44,5.60
2021,01,29,20,45,5.60
2021,01,29,20,46,5.60
2021,01,29,20,47,5.60
2021,01,29,20,48,5.60
2021,01,29,20,49,5.60
2021,01,29,20,50,5.60
2021,01,29,20,51,5.60
2021,01,29,20,52,5.60
2021,01,29,20,53,5.60
2021,01,29,20,54,5.50
2021,01,29,20,55,5.50
2021,01,29,20,56,5.50
2021,01,29,20,57,5.60
2021,01,29,20,58,5.60
2021,01,29,20,59,5.60
2021,01,29,21,00,5.60
2021,01,29,21,01,5.60
2021,01,29,21,02,5.60
2021,01,29,21,03,5.50
2021,01,29,21,04,5.50
2021,01,29,21,05,5.50
2021,01,29,21,06,5.50
2021,01,29,21,07,5.50
2021,01,29,21,08,5.50
2021,01,29,21,09,5.50
2021,01,29,21,10,5.50
2021,01,29,21,11,5.50
2021,01,29,21,12,5.50
2021,01,29,21,13,5.50
2021,01,29,21,14,5.50
2021,01,29,21,15,5.50
2021,01,29,21,16,5.50
2021,01,29,21,17,5.50
2021,01,29,21,18,5.40
2021,01,29,21,19,5.40
2021,01,29,21,20,5.40
2021,01,29,21,21,5.40
2021,01,29,21,22,5.40
2021,01,29,21,23,5.40
2021,01,29,21,24,5.40
2021,01,29,21,25,5.40
2021,01,29,21,26,5.40
2021,01,29,21,27,5.40
2021,01,29,21,28,5.30
2021,01,29,21,29,5.30
2021,01,29,21,30,5.30
2021,01,29,21,31,5.30
2021,01,29,21,32,5.30
2021,01,29,21,33,5.30
2021,01,29,21,34,5.30
2021,01,29,21,35,5.30
2021,01,29,21,36,5.30
2021,01,29,21,37,5.30
2021,01,29,21,38,5.30
2021,01,29,21,39,5.30
2021,01,29,21,40,5.20
2021,01,29,21,41,5.20
2021,01,29,21,42,5.20
2021,01,29,21,43,5.20
2021,01,29,21,44,5.20
2021,01,29,21,45,5.20
2021,01,29,21,46,5.20
2021,01,29,21,47,5.20
2021,01,29,21,48,5.20
2021,01,29,21,49,5.10
2021,01,29,21,50,5.10
2021,01,29,21,51,5.10
2021,01,29,21,52,5.10
2021,01,29,21,53,5.10
2021,01,29,21,54,5.10
2021,01,29,21,55,5.10
2021,01,29,21,56,5.10
2021,01,29,21,57,5.10
2021,01,29,21,58,5.10
2021,01,29,21,59,5.10
2021,01,29,22,00,5.10
2021,01,29,22,01,5.10
2021,01,29,22,02,5.10
2021,01,29,22,03,5.10
2021,01,29,22,04,5.00
2021,01,29,22,05,5.10
2021,01,29,22,06,5.10
2021,01,29,22,07,5.10
2021,01,29,22,08,5.10
2021,01,29,22,09,5.10
2021,01,29,22,10,5.10
2021,01,29,22,11,5.10
2021,01,29,22,12,5.10
2021,01,29,22,13,5.10
2021,01,29,22,14,5.10
2021,01,29,22,15,5.10
2021,01,29,22,16,5.10
2021,01,29,22,17,5.10
2021,01,29,22,18,5.10
2021,01,29,22,19,5.10
2021,01,29,22,20,5.10
2021,01,29,22,21,5.20
2021,01,29,22,22,5.20
2021,01,29,22,23,5.20
2021,01,29,22,24,5.20
2021,01,29,22,25,5.20
2021,01,29,22,26,5.20
2021,01,29,22,27,5.30
2021,01,29,22,28,5.30
2021,01,29,22,29,5.30
2021,01,29,22,30,5.30
2021,01,29,22,31,5.30
2021,01,29,22,32,5.30
2021,01,29,22,33,5.40
2021,01,29,22,34,5.40
2021,01,29,22,35,5.40
2021,01,29,22,36,5.40
2021,01,29,22,37,5.40
2021,01,29,22,38,5.40
2021,01,29,22,39,5.40
2021,01,29,22,40,5.50
2021,01,29,22,41,5.50
2021,01,29,22,42,5.50
2021,01,29,22,43,5.50
2021,01,29,22,44,5.50
2021,01,29,22,45,5.50
2021,01,29,22,46,5.50
2021,01,29,22,47,5.50
2021,01,29,22,48,5.50
2021,01,29,22,49,5.50
2021,01,29,22,50,5.60
2021,01,29,22,51,5.60
2021,01,29,22,52,5.60
2021,01,29,22,53,5.60
2021,01,29,22,54,5.60
2021,01,29,22,55,5.60
2021,01,29,22,56,5.60
2021,01,29,22,57,5.60
2021,01,29,22,58,5.60
2021,01,29,22,59,5.60
2021,01,29,23,00,5.70
2021,01,29,23,01,5.70
2021,01,29,23,02,5.70
2021,01,29,23,03,5.70
2021,01,29,23,04,5.70
2021,01,29,23,05,5.70
2021,01,29,23,06,5.70
2021,01,29,23,07,5.70
2021,01,29,23,08,5.70
2021,01,29,23,09,5.70
2021,01,29,23,10,5.70
2021,01,29,23,11,5.70
2021,01,29,23,12,5.70
2021,01,29,23,13,5.70
2021,01,29,23,14,5.70
2021,01,29,23,15,5.70
2021,01,29,23,16,5.70
2021,01,29,23,17,5.70
2021,01,29,23,18,5.70
2021,01,29,23,19,5.70
2021,01,29,23,20,5.70
2021,01,29,23,21,5.70
2021,01,29,23,22,5.70
2021,01,29,23,23,5.70
2021,01,29,23,24,5.70
2021,01,29,23,25,5.70
2021,01,29,23,26,5.70
2021,01,29,23,27,5.70
2021,01,29,23,28,5.70
2021,01,29,23,29,5.70
2021,01,29,23,30,5.70
2021,01,29,23,31,5.70
2021,01,29,23,32,5.70
2021,01,29,23,33,5.70
2021,01,29,23,34,5.70
2021,01,29,23,35,5.70
2021,01,29,23,36,5.60
2021,01,29,23,37,5.60
2021,01,29,23,38,5.60
2021,01,29,23,39,5.60
2021,01,29,23,40,5.60
2021,01,29,23,41,5.60
2021,01,29,23,42,5.60
2021,01,29,23,43,5.60
2021,01,29,23,44,5.60
2021,01,29,23,45,5.60
2021,01,29,23,46,5.60
2021,01,29,23,47,5.60
2021,01,29,23,48,5.60
2021,01,29,23,49,5.60
2021,01,29,23,50,5.60
2021,01,29,23,51,5.50
2021,01,29,23,52,5.50
2021,01,29,23,53,5.50
2021,01,29,23,54,5.50
2021,01,29,23,55,5.50
2021,01,29,23,56,5.50
2021,01,29,23,57,5.50
2021,01,29,23,58,5.40
2021,01,29,23,59,5.40
